FW4306 Weather Reports


time (UTC)temp
C
wind
direction
speed
KPH
gust
KPH
rain 1hr
cm
rain 24hr
cm
rain mn
cm
humidity
%
barometer
mb
20260507041003 11 178 0.0 1.6 0.00 0.00 0.00 92 1020.9
20260507040503 11 178 0.0 1.6 0.00 0.00 0.00 92 1020.8
20260507040005 11 178 0.0 1.6 0.00 0.00 0.00 92 1020.8
20260507035502 11 178 0.0 1.6 0.00 0.00 0.00 91 1020.8
20260507035003 11 178 0.0 1.6 0.00 0.00 0.00 91 1020.7
20260507034505 11 178 0.0 1.6 0.00 0.00 0.00 91 1020.7
20260507034003 11 178 0.0 1.6 0.00 0.00 0.00 91 1020.7
20260507033504 11 178 0.0 1.6 0.00 0.00 0.00 90 1020.7
20260507033004 11 192 0.0 1.6 0.00 0.00 0.00 90 1020.6
20260507032504 11 180 0.0 3.2 0.00 0.00 0.00 90 1020.6
20260507032005 11 180 0.0 3.2 0.00 0.00 0.00 90 1020.6
20260507031507 12 180 0.0 3.2 0.00 0.00 0.00 89 1020.5
20260507031006 11 190 0.0 3.2 0.00 0.00 0.00 89 1020.5
20260507030504 12 189 0.0 3.2 0.00 0.00 0.00 89 1020.6
20260507030006 12 189 0.0 3.2 0.00 0.00 0.00 89 1020.5
20260507025504 12 199 0.0 0.0 0.00 0.00 0.00 89 1020.6
20260507025005 12 199 0.0 3.2 0.00 0.00 0.00 89 1020.6
20260507024509 12 199 0.0 3.2 0.00 0.00 0.00 88 1020.6
20260507024002 12 196 1.6 4.8 0.00 0.00 0.00 88 1020.6
20260507023502 12 197 0.0 4.8 0.00 0.00 0.00 89 1020.6
20260507023009 12 194 1.6 4.8 0.00 0.00 0.00 89 1020.6
20260507022504 12 190 1.6 4.8 0.00 0.00 0.00 88 1020.7
20260507022005 12 200 0.0 3.2 0.00 0.00 0.00 88 1020.6
20260507021507 12 201 0.0 3.2 0.00 0.00 0.00 88 1020.6
20260507021006 12 201 0.0 4.8 0.00 0.00 0.00 88 1020.6
20260507020503 12 201 0.0 4.8 0.00 0.00 0.00 87 1020.6
20260507020009 12 200 1.6 4.8 0.00 0.00 0.00 87 1020.6
20260507015506 12 202 0.0 4.8 0.00 0.00 0.00 87 1020.5
20260507015004 12 198 0.0 4.8 0.00 0.00 0.00 87 1020.5
20260507014512 12 198 1.6 4.8 0.00 0.00 0.00 87 1020.5
20260507014004 12 196 3.2 6.4 0.00 0.00 0.00 87 1020.5
20260507013505 12 197 3.2 6.4 0.00 0.00 0.00 86 1020.4
20260507013011 12 198 3.2 6.4 0.00 0.00 0.00 87 1020.5
20260507012505 12 202 3.2 6.4 0.00 0.00 0.00 87 1020.4
20260507012004 12 201 1.6 4.8 0.00 0.00 0.00 87 1020.5
20260507011523 12 200 1.6 4.8 0.00 0.00 0.00 87 1020.5
20260507011005 12 201 3.2 6.4 0.00 0.00 0.00 87 1020.5
20260507010507 12 201 1.6 6.4 0.00 0.00 0.00 87 1020.5
20260507010006 12 199 4.8 6.4 0.00 0.00 0.00 87 1020.6
20260507005508 12 198 3.2 6.4 0.00 0.00 0.00 87 1020.6
20260507005003 12 205 3.2 6.4 0.00 0.00 0.00 87 1020.6
20260507004511 12 205 3.2 6.4 0.00 0.00 0.00 87 1020.7
20260507004004 12 206 1.6 6.4 0.00 0.00 0.00 87 1020.6
20260507003504 12 199 3.2 6.4 0.00 0.00 0.00 87 1020.6
20260507003006 12 198 3.2 6.4 0.00 0.00 0.00 86 1020.6
20260507002504 12 196 1.6 4.8 0.00 0.00 0.00 86 1020.5
20260507002004 12 196 3.2 6.4 0.00 0.00 0.00 87 1020.6
20260507001519 12 195 1.6 6.4 0.00 0.00 0.00 86 1020.6
20260507001004 12 200 4.8 6.4 0.00 0.00 0.00 86 1020.5
20260507000505 12 143 1.6 6.4 0.00 0.00 0.00 86 1020.5
20260507000016 12 188 3.2 6.4 0.00 0.00 0.00 86 1020.5
20260506235504 12 196 1.6 4.8 0.00 0.00 0.00 86 1020.5
20260506235004 12 174 1.6 4.8 0.00 0.00 0.00 86 1020.6
20260506234512 12 203 1.6 6.4 0.00 0.00 0.00 87 1020.6
20260506234006 12 202 1.6 6.4 0.00 0.00 0.00 86 1020.6
20260506233504 12 202 3.2 6.4 0.00 0.00 0.00 86 1020.5
20260506233012 12 201 1.6 4.8 0.00 0.00 0.00 87 1020.5
20260506232505 12 201 1.6 4.8 0.00 0.00 0.00 87 1020.6
20260506232003 12 198 0.0 6.4 0.00 0.00 0.00 86 1020.6
20260506231515 12 197 1.6 6.4 0.00 0.00 0.00 87 1020.6
20260506231006 12 197 3.2 6.4 0.00 0.00 0.00 85 1020.6
20260506230505 12 194 4.8 6.4 0.00 0.00 0.00 86 1020.6
20260506230010 12 213 3.2 6.4 0.00 0.00 0.00 86 1020.6
20260506225508 12 200 1.6 6.4 0.00 0.00 0.00 85 1020.6
20260506225006 12 203 1.6 9.7 0.00 0.00 0.00 85 1020.6
20260506224517 12 213 3.2 9.7 0.00 0.00 0.00 85 1020.6
20260506224005 12 217 3.2 9.7 0.00 0.00 0.00 85 1020.6
20260506223505 12 206 3.2 6.4 0.00 0.00 0.00 86 1020.7
20260506223018 12 213 3.2 8.0 0.00 0.00 0.00 86 1020.7
20260506222504 12 214 3.2 9.7 0.00 0.00 0.00 87 1020.6
20260506222007 12 227 4.8 9.7 0.00 0.00 0.00 86 1020.7
20260506221518 12 200 4.8 9.7 0.00 0.00 0.00 86 1020.7
20260506221003 12 200 4.8 9.7 0.00 0.00 0.00 86 1020.7
20260506220504 12 197 6.4 9.7 0.00 0.00 0.00 86 1020.7
20260506220016 12 196 6.4 9.7 0.00 0.00 0.00 87 1020.8
20260506215506 12 200 4.8 9.7 0.00 0.00 0.00 87 1020.7
20260506215004 12 200 6.4 9.7 0.00 0.00 0.00 86 1020.8
20260506214514 12 206 4.8 8.0 0.00 0.00 0.00 86 1020.8
20260506214007 12 195 6.4 9.7 0.00 0.00 0.00 86 1020.8
20260506213506 12 202 6.4 9.7 0.00 0.00 0.00 86 1020.7
20260506213015 12 196 4.8 11.3 0.00 0.00 0.00 87 1020.7
20260506212507 12 205 4.8 11.3 0.00 0.00 0.00 87 1020.7
20260506212010 12 203 6.4 11.3 0.00 0.00 0.00 87 1020.8
20260506211517 12 215 6.4 11.3 0.00 0.00 0.00 87 1020.8
20260506211006 12 192 6.4 11.3 0.00 0.00 0.00 87 1020.8
20260506210503 12 215 8.0 11.3 0.00 0.00 0.00 87 1020.8
20260506210024 12 198 6.4 11.3 0.00 0.00 0.00 86 1020.8
20260506205505 12 198 6.4 11.3 0.00 0.00 0.00 86 1020.8
20260506205010 12 202 6.4 11.3 0.00 0.00 0.00 86 1020.8
20260506204520 12 205 8.0 11.3 0.00 0.00 0.00 87 1020.7
20260506204006 12 217 8.0 11.3 0.00 0.00 0.00 88 1020.7
20260506203505 12 196 6.4 11.3 0.00 0.00 0.00 87 1020.7
20260506203019 12 194 8.0 12.9 0.00 0.00 0.00 88 1020.7
20260506202507 12 192 8.0 12.9 0.00 0.00 0.00 87 1020.7
20260506202007 12 207 6.4 12.9 0.00 0.00 0.00 88 1020.6
20260506201523 12 205 8.0 12.9 0.00 0.00 0.00 89 1020.6
20260506201007 12 196 8.0 12.9 0.00 0.00 0.00 90 1020.6
20260506200510 11 188 8.0 12.9 0.00 0.00 0.00 89 1020.6
20260506200015 11 196 6.4 12.9 0.00 0.00 0.00 89 1020.7
20260506195508 11 193 8.0 14.5 0.00 0.00 0.00 90 1020.7
20260506195011 11 209 8.0 14.5 0.00 0.00 0.00 90 1020.7
20260506194516 11 200 9.7 12.9 0.00 0.00 0.00 89 1020.6
20260506194009 11 221 8.0 12.9 0.00 0.00 0.00 90 1020.6
20260506193507 12 196 8.0 12.9 0.00 0.00 0.00 89 1020.5
20260506193024 12 221 8.0 12.9 0.00 0.00 0.00 89 1020.5
20260506192507 12 197 6.4 14.5 0.00 0.00 0.00 90 1020.4
20260506192012 12 190 8.0 16.1 0.00 0.00 0.00 90 1020.5
20260506191523 12 191 9.7 16.1 0.00 0.00 0.00 90 1020.4
20260506191007 12 190 9.7 14.5 0.00 0.00 0.00 90 1020.5
20260506190507 12 204 8.0 14.5 0.00 0.00 0.00 90 1020.4
20260506190024 12 199 11.3 14.5 0.00 0.00 0.00 90 1020.3
20260506185510 12 9.7 14.5 0.00 0.00 0.00 91 1020.4
20260506185007 12 191 9.7 14.5 0.00 0.00 0.00 92 1020.3
20260506184526 11 197 9.7 16.1 0.00 0.00 0.00 92 1020.3
20260506184009 11 208 9.7 16.1 0.00 0.00 0.00 91 1020.3
20260506183507 12 199 11.3 16.1 0.00 0.00 0.00 91 1020.3
20260506183022 12 202 9.7 16.1 0.00 0.00 0.00 91 1020.3
20260506182507 12 194 9.7 14.5 0.00 0.00 0.00 92 1020.3
20260506182011 12 200 8.0 16.1 0.00 0.00 0.00 92 1020.2
20260506181520 11 200 6.4 16.1 0.00 0.00 0.00 93 1020.1
20260506181009 11 212 11.3 17.7 0.00 0.00 0.00 93 1020.1
20260506180509 11 195 9.7 17.7 0.00 0.00 0.00 93 1020.2
20260506180028 11 190 8.0 14.5 0.00 0.00 0.00 93 1020.2
20260506175507 11 195 8.0 12.9 0.00 0.00 0.00 93 1020.2
20260506175012 11 201 6.4 11.3 0.00 0.00 0.00 93 1020.2
20260506174522 11 205 4.8 11.3 0.00 0.00 0.00 93 1020.2
20260506174008 11 212 6.4 12.9 0.00 0.00 0.00 94 1020.2
20260506173509 11 198 6.4 12.9 0.00 0.00 0.00 94 1019.9
20260506173021 11 219 6.4 14.5 0.00 0.00 0.00 94 1019.7
20260506172509 11 199 8.0 14.5 0.00 0.00 0.00 94 1019.7
20260506172009 11 195 8.0 12.9 0.00 0.00 0.00 94 1019.8
20260506171529 11 204 8.0 14.5 0.00 0.00 0.00 94 1019.9
20260506171008 11 199 8.0 14.5 0.00 0.00 0.00 94 1020.0
20260506170509 11 194 8.0 14.5 0.00 0.00 0.00 94 1020.1
20260506170029 11 188 8.0 16.1 0.00 0.00 0.00 94 1020.1
20260506165508 11 197 8.0 16.1 0.00 0.00 0.00 95 1020.0
20260506165007 11 209 8.0 14.5 0.00 0.00 0.00 95 1020.0
20260506164525 11 196 9.7 14.5 0.00 0.00 0.00 95 1019.9
20260506164007 11 179 8.0 11.3 0.00 0.00 0.00 95 1020.0
20260506163511 11 200 8.0 12.9 0.00 0.00 0.00 95 1020.0
20260506163031 11 203 9.7 12.9 0.00 0.00 0.00 95 1020.2
20260506162508 11 201 8.0 14.5 0.00 0.00 0.00 95 1020.1
20260506162009 11 201 8.0 16.1 0.00 0.00 0.00 95 1020.0
20260506161527 11 200 9.7 16.1 0.00 0.00 0.00 95 1020.0
20260506161010 11 203 11.3 14.5 0.00 0.00 0.00 95 1019.9
20260506160513 11 211 9.7 14.5 0.00 0.00 0.00 95 1019.9
20260506160025 11 194 6.4 12.9 0.00 0.00 0.00 95 1019.8
20260506155504 11 207 8.0 14.5 0.00 0.00 0.00 95 1019.7
20260506155006 11 196 8.0 14.5 0.00 0.00 0.00 94 1019.5
20260506154513 11 196 8.0 14.5 0.00 0.00 0.00 94 1019.3
20260506154004 11 217 9.7 14.5 0.00 0.00 0.00 94 1019.3
20260506153503 11 202 8.0 16.1 0.00 0.00 0.00 94 1019.3
20260506153009 11 200 9.7 16.1 0.00 0.00 0.00 94 1019.4
20260506152504 11 196 9.7 14.5 0.00 0.00 0.00 94 1019.3
20260506152007 11 190 9.7 17.7 0.00 0.00 0.00 94 1019.4
20260506151517 11 213 9.7 17.7 0.00 0.00 0.00 94 1019.4
20260506151004 11 216 9.7 16.1 0.00 0.00 0.00 94 1019.4
20260506150505 11 186 11.3 16.1 0.00 0.00 0.00 94 1019.5
20260506150014 11 210 8.0 16.1 0.00 0.00 0.00 94 1019.5
20260506145502 11 196 8.0 16.1 0.00 0.00 0.00 94 1019.7
20260506145004 11 205 11.3 16.1 0.00 0.00 0.00 94 1019.8
20260506144512 11 194 9.7 14.5 0.00 0.00 0.00 94 1019.5
20260506144010 11 226 9.7 14.5 0.00 0.00 0.00 94 1019.3
20260506143504 11 147 8.0 14.5 0.00 0.00 0.00 94 1019.2
20260506143022 11 212 9.7 14.5 0.00 0.00 0.00 95 1019.1
20260506142511 11 194 8.0 16.1 0.00 0.00 0.00 95 1019.1
20260506142008 11 205 9.7 16.1 0.00 0.00 0.00 95 1019.3
20260506141530 11 199 9.7 14.5 0.00 0.00 0.00 95 1019.2
20260506141011 11 207 9.7 14.5 0.00 0.00 0.00 95 1019.2
20260506140504 11 197 8.0 16.1 0.00 0.00 0.00 95 1019.2
20260506140008 11 215 9.7 16.1 0.00 0.00 0.00 95 1019.2
20260506135507 11 197 11.3 17.7 0.00 0.00 0.00 95 1019.0
20260506135009 11 192 11.3 17.7 0.00 0.00 0.00 95 1019.0
20260506134524 11 192 11.3 16.1 0.00 0.00 0.00 95 1018.9
20260506134008 11 198 9.7 16.1 0.00 0.00 0.00 95 1019.0
20260506133507 11 205 11.3 16.1 0.00 0.00 0.00 95 1019.0
20260506133018 11 207 8.0 14.5 0.00 0.00 0.00 95 1019.1
20260506132506 11 202 8.0 14.5 0.00 0.00 0.00 95 1019.1
20260506132008 11 194 8.0 14.5 0.00 0.00 0.00 95 1019.1
20260506131527 11 201 11.3 16.1 0.00 0.00 0.00 95 1018.8
20260506131007 11 191 11.3 14.5 0.00 0.00 0.00 95 1018.9
20260506130507 11 202 8.0 12.9 0.00 0.00 0.00 95 1018.9
20260506130015 10 205 9.7 12.9 0.00 0.00 0.00 95 1018.9
20260506125503 10 199 8.0 12.9 0.00 0.00 0.00 95 1018.8
20260506125004 11 210 8.0 12.9 0.00 0.00 0.00 95 1018.7
20260506124503 10 202 8.0 12.9 0.00 0.00 0.00 95 1018.5
20260506124003 10 205 8.0 12.9 0.00 0.00 0.00 95 1018.6
20260506123503 10 198 8.0 12.9 0.00 0.00 0.00 95 1018.5
20260506123007 10 200 6.4 11.3 0.00 0.00 0.00 95 1018.5
20260506122504 10 194 6.4 11.3 0.00 0.00 0.00 95 1018.5
20260506122003 10 199 6.4 8.0 0.00 0.00 0.00 95 1018.6
20260506121510 10 188 4.8 9.7 0.00 0.00 0.00 95 1018.6
20260506121003 10 198 4.8 9.7 0.00 0.00 0.00 95 1018.6
20260506120506 10 201 4.8 8.0 0.00 0.00 0.00 95 1018.5
20260506120004 10 203 4.8 8.0 0.00 0.00 0.00 95 1018.5
20260506115507 10 198 4.8 8.0 0.00 0.00 0.00 95 1018.5
20260506115002 10 200 1.6 6.4 0.00 0.00 0.00 95 1018.5
20260506114504 10 199 3.2 8.0 0.00 0.00 0.00 95 1018.5
20260506114005 10 209 3.2 8.0 0.00 0.00 0.00 95 1018.4
20260506113504 10 186 3.2 6.4 0.00 0.00 0.00 95 1018.4
20260506113005 10 200 3.2 6.4 0.00 0.00 0.00 95 1018.4
20260506112503 10 201 3.2 8.0 0.00 0.00 0.00 95 1018.3
20260506112003 10 199 4.8 8.0 0.00 0.00 0.00 95 1018.3
20260506111503 10 204 4.8 11.3 0.00 0.00 0.00 95 1018.2
20260506111004 10 200 6.4 11.3 0.00 0.00 0.00 95 1018.2
20260506110504 10 193 8.0 12.9 0.00 0.00 0.00 95 1018.2
20260506110020 10 202 6.4 12.9 0.00 0.00 0.00 95 1018.1
20260506105503 10 208 6.4 12.9 0.00 0.00 0.00 95 1018.1
20260506105005 10 198 8.0 12.9 0.00 0.00 0.00 95 1017.9
20260506104510 10 188 6.4 12.9 0.00 0.00 0.00 95 1017.9
20260506104003 10 202 8.0 12.9 0.00 0.00 0.00 95 1017.9
20260506103504 10 175 6.4 12.9 0.00 0.00 0.00 95 1018.0
20260506103010 10 205 8.0 12.9 0.00 0.00 0.00 95 1017.9
20260506102507 10 217 6.4 12.9 0.00 0.00 0.00 95 1017.8
20260506102002 10 185 6.4 9.7 0.00 0.00 0.00 95 1017.7
20260506101506 10 188 4.8 11.3 0.00 0.00 0.00 95 1017.7
20260506101006 10 221 3.2 11.3 0.00 0.00 0.00 95 1017.7
20260506100503 10 182 3.2 11.3 0.00 0.00 0.00 95 1017.6
20260506100004 10 211 3.2 8.0 0.00 0.00 0.00 95 1017.7
20260506095506 10 205 1.6 8.0 0.00 0.00 0.00 95 1017.7
20260506095004 10 198 3.2 8.0 0.00 0.00 0.00 94 1017.7
20260506094514 10 188 3.2 8.0 0.00 0.00 0.00 94 1017.7
20260506094004 10 162 1.6 6.4 0.00 0.00 0.00 94 1017.6
20260506093503 10 148 1.6 8.0 0.00 0.00 0.00 94 1017.6
20260506093021 10 187 3.2 8.0 0.00 0.00 0.00 95 1017.5
20260506092504 10 175 3.2 8.0 0.00 0.00 0.00 95 1017.5
20260506092005 11 194 1.6 8.0 0.00 0.00 0.00 95 1017.6
20260506091516 11 187 3.2 8.0 0.00 0.00 0.00 95 1017.6
20260506091005 11 182 3.2 8.0 0.00 0.00 0.00 95 1017.6
20260506090504 10 159 3.2 8.0 0.00 0.00 0.00 95 1017.6
20260506090011 10 179 1.6 8.0 0.00 0.00 0.00 95 1017.6
20260506085504 10 176 3.2 8.0 0.00 0.00 0.00 95 1017.6
20260506085003 10 161 0.0 3.2 0.00 0.00 0.00 95 1017.5
20260506084511 10 154 0.0 0.0 0.00 0.00 0.00 95 1017.4
20260506084007 10 154 0.0 0.0 0.00 0.00 0.00 95 1017.4
20260506083504 10 154 0.0 0.0 0.00 0.00 0.00 95 1017.4
20260506083005 10 154 0.0 0.0 0.00 0.00 0.00 95 1017.4
20260506082508 10 154 0.0 0.0 0.00 0.00 0.00 94 1017.3
20260506082003 10 154 0.0 0.0 0.00 0.00 0.00 94 1017.2
20260506081505 11 154 0.0 0.0 0.00 0.00 0.00 94 1017.1
20260506081004 11 154 0.0 0.0 0.00 0.00 0.00 94 1017.0
20260506080503 11 154 0.0 0.0 0.00 0.00 0.00 94 1016.9
20260506073505 11 154 0.0 1.6 0.00 0.00 0.00 94 1016.7
20260506073030 11 154 0.0 3.2 0.00 0.00 0.00 94 1016.7
20260506072504 11 154 0.0 3.2 0.00 0.00 0.00 94 1016.7
20260506072003 11 154 0.0 1.6 0.00 0.00 0.00 93 1016.7
20260506071514 11 154 0.0 1.6 0.00 0.00 0.00 93 1016.6
20260506071006 11 154 0.0 1.6 0.00 0.00 0.00 93 1016.6
20260506070503 11 154 0.0 1.6 0.00 0.00 0.00 94 1016.6
20260506062505 11 154 0.0 0.0 0.00 0.00 0.00 93 1016.4
20260506062003 12 154 0.0 0.0 0.00 0.00 0.00 93 1016.4
20260506061524 12 154 0.0 0.0 0.00 0.00 0.00 93 1016.4
20260506061002 12 154 0.0 0.0 0.00 0.00 0.00 93 1016.3
20260506060504 12 154 0.0 0.0 0.00 0.00 0.00 93 1016.2
20260506051007 12 154 0.0 0.0 0.00 0.00 0.00 92 1015.6
20260506050506 12 154 0.0 0.0 0.00 0.00 0.00 92 1015.5
20260506045008 12 154 0.0 0.0 0.00 0.00 0.00 91 1015.4
20260506044557 12 154 0.0 0.0 0.00 0.00 0.00 91 1015.4
20260506044006 12 154 0.0 1.6 0.00 0.00 0.00 91 1015.4
20260506043506 12 154 0.0 1.6 0.00 0.00 0.00 92 1015.4
20260506043024 12 146 0.0 1.6 0.00 0.00 0.00 91 1015.3
20260506042506 12 123 0.0 1.6 0.00 0.00 0.00 91 1015.3
20260506042007 12 219 0.0 0.0 0.00 0.00 0.00 91 1015.2
20260506041524 12 219 0.0 0.0 0.00 0.00 0.00 91 1015.2